#timestamp,LO_Frequency,Hit,StdDev 
1663574415.2,286047000.3,N
1663574435.0,286047001.2,N
1663574435.9,286047001.2,N
1663574455.8,286047000.9,N
1663574475.6,286047000.7,N
1663574495.4,286046998.2,N
1663574515.3,286047001.2,N
1663574535.1,286046999.9,N
1663574555.9,286047002.6,N
1663574575.7,286046999.8,N
1663574595.5,286047001.1,N
1663574615.4,286047002.4,N
1663574635.2,286047002.7,N
1663574655.0,286047002.3,N
1663574655.9,286047002.3,N
1663574675.8,286047002.5,N
1663574695.6,286046998.3,N
1663574715.5,286046998.1,N
1663574735.3,286046998.7,N
1663574755.1,286046999.1,N
1663574775.9,286046999.6,N
1663574795.7,286046997.7,N
1663574815.5,286046997.8,N
1663574835.4,286046999.5,N
1663574855.2,286046998.4,N
1663574875.1,286047001.0,N
1663574876.0,286047001.0,N
1663574895.8,286047000.2,N
1663574915.6,286047002.3,N
1663574935.5,286046998.8,N
1663574955.3,286046995.1,Y
1663574975.2,286046997.8,P
1663574995.0,286046997.1,N
1663574995.9,286046997.1,N
1663575015.7,286046995.0,Y
1663575035.6,286046998.1,P
1663575055.4,286047002.5,P
1663575075.3,286047001.5,N
1663575095.1,286047003.2,N
1663575096.0,286047003.2,N
1663575115.8,286047003.4,N
1663575135.7,286047002.9,N
1663575155.5,286047002.9,N
1663575175.3,286047002.9,N
1663575195.2,286047004.8,N
1663575215.0,286047011.9,Y
1663575215.9,286047004.8,P
1663575235.8,286047003.5,N
1663575255.6,286047002.9,N
1663575275.4,286047003.3,Y
1663575295.3,286047000.6,P
1663575315.1,286047001.2,N
1663575335.9,286047000.8,N
1663575355.7,286046998.1,N
1663575375.5,286047000.2,N
1663575395.4,286046999.8,N
1663575415.2,286046998.9,N
1663575435.0,286046999.9,N
1663575435.9,286046999.9,N
1663575455.8,286047000.0,N
1663575475.6,286047002.7,N
1663575495.5,286047000.0,N
1663575515.3,286046999.0,N
1663575535.1,286046999.2,N
1663575555.9,286046999.3,N
1663575575.7,286046998.8,N
1663575595.6,286046999.3,N
1663575615.4,286046997.4,N
1663575635.2,286046997.7,N
1663575655.1,286046995.0,Y
1663575656.0,286046995.0,P
1663575675.8,286046997.4,N
1663575695.7,286046996.5,N
1663575715.5,286046999.5,N
1663575735.3,286046999.5,N
1663575755.2,286046998.9,N
1663575775.0,286046999.6,N
1663575775.9,286046999.6,N
1663575795.7,286046996.6,N
1663575815.6,286046997.0,N
1663575835.4,286046997.8,N
1663575855.3,286046998.9,N
1663575875.1,286047001.0,N
1663575876.0,286047001.0,N
1663575895.8,286047000.4,N
1663575915.7,286046998.1,N
1663575935.5,286047000.7,N
1663575985.4,286046998.3,E
1663575995.3,286047000.6,N
1663576015.1,286046999.7,P
1663576035.9,286047000.6,N
1663576055.7,286047000.0,N
1663576075.5,286046999.1,N
1663576095.4,286047001.0,N
1663576115.2,286046998.8,N
1663576135.0,286047001.0,N
1663576135.9,286047001.0,N
1663576155.8,286047000.2,N
1663576175.6,286046998.3,N
1663576195.5,286046997.0,Y
1663576215.3,286046998.8,P
1663576235.1,286047001.0,N
1663576255.9,286047000.1,N
1663576275.7,286046999.8,N
1663576295.6,286047000.2,N
1663576315.4,286047000.3,N
1663576335.2,286046998.4,N
1663576355.1,286046997.2,Y
1663576356.0,286046997.2,P
1663576375.8,286046998.6,N
1663576395.7,286046998.2,N
1663576415.5,286047000.7,N
1663576435.3,286047000.2,N
1663576455.2,286047002.3,N
1663576475.0,286047004.2,N
1663576475.9,286047004.2,N
1663576495.8,286047004.1,N
1663576515.6,286047003.4,N
1663576535.4,286047002.0,N
1663576555.3,286047000.1,N
1663576575.1,286047001.3,N
1663576595.9,286047001.8,N
1663576615.7,286047002.0,N
1663576635.6,286047001.8,N
1663576655.4,286046998.5,N
1663576675.2,286046999.8,N
1663576695.1,286047002.3,N
1663576696.0,286047002.3,N
1663576715.8,286047000.0,N
1663576735.7,286047001.0,N
1663576755.5,286047000.6,N
1663576775.3,286047000.5,N
1663576795.2,286046999.7,N
1663576815.0,286047002.8,N
1663576815.9,286047002.8,N
1663576835.8,286047001.9,N
1663576855.6,286047002.7,N
1663576875.4,286047002.8,N
1663576895.3,286046999.7,N
1663576915.1,286047001.0,N
1663576935.9,286046999.6,N
1663576955.7,286046998.4,N
1663576975.5,286046998.2,N
1663576995.4,286046999.8,N
1663577015.2,286046999.9,N
1663577035.0,286047000.1,N
1663577035.9,286047000.1,N
1663577055.8,286047003.6,N
1663577075.6,286046999.7,N
1663577095.5,286046999.7,N
1663577115.3,286047001.9,N
1663577135.1,286047000.3,N
1663577155.9,286047000.9,N
1663577175.7,286047002.5,N
1663577195.6,286047002.7,N
1663577215.4,286047002.8,N
1663577235.3,286047002.6,N
1663577255.1,286046999.8,N
1663577256.0,286046999.8,N
1663577275.8,286047001.6,N
1663577295.7,286047004.3,N
1663577315.5,286047004.3,N
1663577335.4,286047005.3,Y
1663577355.2,286047001.4,P
1663577375.0,286047004.3,P
1663577375.9,286047004.3,P
1663577395.8,286047001.4,N
1663577415.6,286047003.9,N
1663577435.5,286047004.3,N
1663577455.3,286047001.3,N
1663577475.1,286047002.5,N
1663577495.9,286047002.4,N
1663577515.7,286047001.7,N
1663577535.5,286047004.1,Y
1663577555.4,286047002.8,P
1663577575.2,286047002.4,P
1663577595.1,286047002.3,P
1663577596.0,286047002.3,Y
1663577615.8,286046998.6,P
1663577635.6,286047000.6,N
1663577655.5,286047001.0,N
1663577675.3,286046998.3,N
1663577695.2,286047000.9,N
1663577715.9,286047000.3,N
1663577735.7,286047000.8,N
1663577755.6,286046998.5,N
1663577775.4,286046998.8,N
1663577795.2,286046998.4,N
1663577815.1,286046998.1,N
1663577816.0,286046998.1,N
1663577835.8,286046998.1,N
1663577855.7,286047000.6,N
1663577875.5,286047001.0,N
1663577895.3,286047000.8,N
1663577915.2,286046998.4,N
1663577935.9,286046999.0,N
1663577955.7,286046998.3,N
1663577975.6,286046998.7,N
1663577995.4,286046998.2,N
